STARLINK-2483

Last updated on Sat May 08 2021 00:02:05 GMT+0000 (Coordinated Universal Time)

1 48140U 21027BA 21127.58334491 .00055477 00000-0 39746-3 0 9999 2 48140 53.0471 191.7190 0002409 23.2327 292.6392 15.73172273 1777

Satellite not in orbit